Weather History for Lawrence, MA

Change the Weather History Date:

Wednesday, December 5, 2012

  Actual Average Record
Temperature  
Mean Temperature 46 °F -  
Max Temperature 59 °F 40 °F 69 °F (1982)
Min Temperature 32 °F 24 °F 1 °F (1926)
Degree Days  
Heating Degree Days 19    
Moisture  
Dew Point 37 °F    
Average Humidity 62    
Maximum Humidity 84    
Minimum Humidity 43    
Precipitation  
Precipitation 0.02 in - - ()
Sea Level Pressure  
Sea Level Pressure 29.95 in    
Wind  
Wind Speed 10 mph (West)    
Max Wind Speed 20 mph    
Max Gust Speed 33 mph    
Visibility 10 miles    
Events Rain    
Averages and records for this station are not official NWS values.
T = Trace of Precipitation, MM = Missing Value Source: NWS Daily Summary

Daily Weather History Graph

Daily Weather History Graph

Search for Another Location

Airport:

Trip Planner

Search our weather history database for the weather conditions in past years. The results will help you decide how hot, cold, wet, or windy it might be!

Date:

Astronomy

Dec. 05, 2012 Rise Set
Actual Time 6:59 AM EST 4:10 PM EST
Civil Twilight 6:27 AM EST 4:42 PM EST
Nautical Twilight 5:52 AM EST 5:18 PM EST
Astronomical Twilight 5:18 AM EST 5:52 PM EST
Moon 11:04 PM EST (12/5) 11:15 AM EST (12/5)
Length of Visible Light 10h 14m
Length of Day
9h 11m
Waning Gibbous, 60% of the Moon is Illuminated
Dec 5
Waning Gibbous
Dec 6
Last Quarter
Dec 13
New
Dec 20
First Quarter
Dec 28
Full

Hourly Weather History & Observations

Time (EST) Temp. Windchill Dew Point Humidity Pressure Visibility Wind Dir Wind Speed Gust Speed Precip Events Conditions
12:54 AM 59.0 °F - 53.1 °F 81% 29.95 in 10.0 mi SSW 9.2 mph - N/A   Overcast
1:33 AM 59.0 °F - 53.6 °F 82% 29.92 in 10.0 mi SSW 6.9 mph 20.7 mph N/A   Scattered Clouds
1:43 AM 59.0 °F - 53.6 °F 82% 29.91 in 10.0 mi Variable 6.9 mph 17.3 mph N/A   Mostly Cloudy
1:54 AM 59.0 °F - 53.1 °F 81% 29.90 in 10.0 mi South 8.1 mph 17.3 mph N/A   Scattered Clouds
2:54 AM 57.9 °F - 53.1 °F 84% 29.88 in 10.0 mi SSW 9.2 mph - N/A   Partly Cloudy
3:54 AM 57.9 °F - 52.0 °F 81% 29.84 in 10.0 mi SSW 8.1 mph - N/A   Scattered Clouds
4:54 AM 57.9 °F - 52.0 °F 81% 29.84 in 10.0 mi SW 11.5 mph - N/A   Mostly Cloudy
5:10 AM 57.2 °F - 51.8 °F 82% 29.84 in 6.0 mi SW 10.4 mph - 0.01 in Rain Light Rain
5:54 AM 57.0 °F - 52.0 °F 83% 29.85 in 10.0 mi WSW 9.2 mph 19.6 mph 0.01 in   Overcast
6:54 AM 54.0 °F - 46.9 °F 77% 29.87 in 10.0 mi WNW 6.9 mph - 0.01 in Rain Light Rain
7:54 AM 54.0 °F - 45.0 °F 72% 29.90 in 10.0 mi WNW 9.2 mph - 0.00 in   Overcast
9:54 AM 53.1 °F - 41.0 °F 64% 29.93 in 10.0 mi West 6.9 mph - N/A   Scattered Clouds
10:54 AM 54.0 °F - 36.0 °F 51% 29.91 in 10.0 mi NW 16.1 mph 27.6 mph N/A   Partly Cloudy
11:54 AM 53.1 °F - 33.1 °F 47% 29.90 in 10.0 mi West 15.0 mph 25.3 mph N/A   Partly Cloudy
12:54 PM 55.0 °F - 34.0 °F 45% 29.89 in 10.0 mi WNW 8.1 mph 20.7 mph N/A   Mostly Cloudy
1:54 PM 53.1 °F - 32.0 °F 45% 29.89 in 10.0 mi WNW 8.1 mph 23.0 mph N/A   Partly Cloudy
2:54 PM 51.1 °F - 28.9 °F 43% 29.91 in 10.0 mi West 13.8 mph 23.0 mph N/A   Partly Cloudy
3:54 PM 48.9 °F - 28.0 °F 44% 29.94 in 10.0 mi West 12.7 mph 24.2 mph N/A   Mostly Cloudy
4:54 PM 44.1 °F 35.9 °F 26.1 °F 49% 29.99 in 10.0 mi WNW 19.6 mph 31.1 mph N/A   Overcast
5:54 PM 42.1 °F 35.2 °F 21.0 °F 43% 30.02 in 10.0 mi WNW 12.7 mph 26.5 mph N/A   Overcast
6:54 PM 39.9 °F 32.1 °F 26.1 °F 58% 30.06 in 10.0 mi NNW 13.8 mph 23.0 mph 0.00 in   Overcast
7:54 PM 37.9 °F 30.9 °F 21.9 °F 53% 30.08 in 10.0 mi NNW 10.4 mph 25.3 mph 0.00 in   Overcast
8:54 PM 37.0 °F 30.4 °F 18.0 °F 46% 30.09 in 10.0 mi NW 9.2 mph 23.0 mph N/A   Overcast
9:54 PM 34.0 °F 25.5 °F 15.1 °F 46% 30.12 in 10.0 mi NNW 11.5 mph 33.4 mph N/A   Scattered Clouds
10:54 PM 33.1 °F 24.4 °F 14.0 °F 46% 30.13 in 10.0 mi NW 11.5 mph 25.3 mph N/A   Clear
11:54 PM 32.0 °F 21.6 °F 14.0 °F 48% 30.15 in 10.0 mi WNW 15.0 mph 21.9 mph N/A   Partly Cloudy